Regional Weather Roundup
Issued by NWS

Home | Current Version | Previous Version | Graphics & Text | Print | Product List | Glossary On
Versions: 1 2 3 4 5 6 7 8 9 10 11 12 13 14 15 16 17 18 19 20 21 22 23 24 25 26 27 28 29 30 31 32 33 34 35 36 37 38 39 40 41 42 43 44 45 46 47 48 49 50
000
ASUS43 KIND 300809
RWRIN

WEATHER ROUNDUP FOR INDIANA
NATIONAL WEATHER SERVICE INDIANAPOLIS IN
300 AM EST FRI JAN 30 2015

NOTE: "FAIR" INDICATES FEW OR NO CLOUDS BELOW 12,000 FEET WITH NO
SIGNIFICANT WEATHER AND/OR OBSTRUCTIONS TO VISIBILITY.

* - STATION DOES NOT REPORT WEATHER SUCH AS PRECIPITATION OR FOG.

+ - STATION NOT QUALITY CONTROLLED BY THE NATIONAL WEATHER SERVICE.
    USE DATA WITH CAUTION...ESPECIALLY DEWPOINT AND RELATIVE
    HUMIDITY OBSERVATIONS.

INZ001>003-010>013-019-020-300900-
NORTHWEST INDIANA

CITY           SKY/WX    TMP DP  RH WIND       PRES   REMARKS
GARY /AIRPORT/ CLOUDY    31  13  48 N20G28    30.37R WCI  18
KNOX *+        CLOUDY    28   9  43 N18G30    30.30R WCI  16
LA PORTE +     MOCLDY    29  19  65 N21G29    30.31R WCI  16
MICHIGAN CITY+ CLOUDY    28  12  50 N22G29    30.33R WCI  15
MONTICELLO +   FLURRIES  30  27  86 N13G20    30.30R WCI  20
RENSSELAER +   LGT SNOW  32  28  86 N16       30.33R WCI  21
VALPARAISO     CLOUDY    28  17  63 N15       30.32R WCI  16

$$

LMZ046-743>745-300900-
SOUTHERN LAKE MICHIGAN

STATION/POSITION TIME  TEMP WIND        PRES
                       AIR  DIR/SP/G
                 (UTC) (F)  (DEG/KT/KT) (MB)
MICHIGAN CITY    0800   29  340/ 28/ 31   N/A

$$

INZ004-005-014>016-021>024-300900-
NORTH CENTRAL INDIANA

CITY           SKY/WX    TMP DP  RH WIND       PRES   REMARKS
GOSHEN         MOCLDY    25  14  63 N16G25    30.27R WCI  12
LOGANSPORT +   FLURRIES  30  27  86 N15G24    30.29R WCI  19
PERU/GRISSOM   MIX PCPN  29  23  78 N16G23    30.27R WCI  17
ROCHESTER +    MOCLDY    30  25  80 N16       30.28R WCI  19
SOUTH BEND     CLOUDY    27  17  66 N25G31    30.30R WCI  12
WARSAW +       CLOUDY    27  18  69 N12G23    30.26R WCI  16

$$

INZ006>009-017-018-025>027-300900-
NORTHEAST INDIANA

CITY           SKY/WX    TMP DP  RH WIND       PRES   REMARKS
ANGOLA *+      CLEAR     21  12  68 N13       30.22R WCI   9
AUBURN +       PTCLDY    27  18  69 NW15      30.24R WCI  15
FORT WAYNE     FLURRIES  29  21  72 NW18G25   30.23R WCI  16
HUNTINGTON +   CLOUDY    28  17  61 N16G23    30.25R WCI  17

$$

INZ028-029-035-036-043>045-051>053-300900-
WEST CENTRAL INDIANA

CITY           SKY/WX    TMP DP  RH WIND       PRES   REMARKS
CRAWFORDSVL +  CLOUDY    31  20  64 NW14G20   30.30R WCI  21
GREENCASTLE +  CLOUDY    32  23  69 NW7       30.30R WCI  26
LAFAYETTE      FLURRIES  31  24  75 N12G24    30.32R WCI  22
TERRE HAUTE    CLOUDY    34  26  72 NW13      30.34R WCI  25

$$

INZ030>032-037>040-046>048-054>057-064-065-300900-
CENTRAL INDIANA

CITY           SKY/WX    TMP DP  RH WIND       PRES   REMARKS
CP ATTERBURY + CLOUDY    34  27  75 NW12      30.29R WCI  25
GREENWOOD *+   CLOUDY    34  23  64 NW10G17   30.27R WCI  26
INDIANAPOLIS   CLOUDY    31  22  69 NW13      30.28R WCI  21
-EAGLE CREEK   CLOUDY    32  23  69 NW12      30.27R WCI  23
KOKOMO *+      CLOUDY    30  23  74 N20G29    30.27R WCI  18
MARION +       FLURRIES  30  24  77 N15G23    30.26R WCI  19
MT COMFORT *+  PTCLDY    32  18  55 NW14G20   30.26R WCI  22
SHELBYVILLE    CLOUDY    35  23  61 NW14      30.26R WCI  26
ZIONSVILLE +   CLOUDY    32  22  66 NW9       30.27R WCI  24

$$

INZ033-034-041-042-049-050-058-059-300900-
EAST CENTRAL INDIANA

CITY           SKY/WX    TMP DP  RH WIND       PRES   REMARKS
MUNCIE         CLOUDY    32  25  75 NW13G24   30.22R WCI  22

$$

INZ060-061-067>069-081>083-085>088-300900-
SOUTHWEST INDIANA

CITY           SKY/WX    TMP DP  RH WIND       PRES   REMARKS
EVANSVILLE     CLOUDY    36  27  69 NW10G17   30.39R
HUNTINGBURG *+ CLOUDY    36  27  69 NW13      30.36R
WASHINGTON +   CLOUDY    34  26  72 NW12      30.35R WCI  25

$$

INZ062-063-066-070>080-084-089>092-300900-
SOUTH CENTRAL AND SOUTHEAST INDIANA

CITY           SKY/WX    TMP DP  RH WIND       PRES   REMARKS
BLOOMINGTON    CLOUDY    34  25  69 NW9       30.29R WCI  27
NORTH VERNON + CLOUDY    34  27  75 NW7       30.28R WCI  28
SEYMOUR +      CLOUDY    36  23  60 NW14      30.29R

$$



USA.gov is the U.S. government's official web portal to all federal, state and local government web resources and services.